IZ1MEU-13 Weather Reports


time (UTC)temp
C
wind
direction
speed
KPH
gust
KPH
rain 1hr
cm
rain 24hr
cm
rain mn
cm
humidity
%
barometer
mb
20260508030432 10 0.0 0.0 0.00 0.00 0.00 62 1016.6
20260508024429 10 0.0 0.0 0.00 0.00 0.00 62 1016.6
20260508022425 10 0.0 0.0 0.00 0.00 0.00 62 1016.6
20260508020421 11 0.0 0.0 0.00 0.00 0.00 61 1016.6
20260508014417 10 0.0 0.0 0.00 0.00 0.00 63 1016.6
20260508012413 10 0.0 0.0 0.00 0.00 0.00 63 1016.6
20260508010409 10 0.0 0.0 0.00 0.00 0.00 63 1016.7
20260508004406 10 0.0 0.0 0.00 0.00 0.00 63 1016.8
20260508002402 10 0.0 0.0 0.00 0.00 0.00 63 1016.7
20260508000358 10 0.0 0.0 0.00 0.00 0.00 63 1016.7
20260507234356 10 0.0 0.0 0.00 0.00 0.00 63 1016.9
20260507232351 10 0.0 0.0 0.00 0.00 0.00 64 1017.1
20260507230347 10 0.0 0.0 0.00 0.00 0.00 64 1017.1
20260507224343 10 0.0 0.0 0.00 0.00 0.00 64 1017.0
20260507222339 11 0.0 0.0 0.00 0.00 0.00 62 1017.0
20260507220336 11 0.0 0.0 0.00 0.00 0.00 62 1016.9
20260507214332 11 0.0 0.0 0.00 0.00 0.00 63 1016.6
20260507212328 11 0.0 0.0 0.00 0.00 0.00 64 1016.4
20260507210324 11 0.0 0.0 0.00 0.00 0.00 64 1016.3
20260507204320 11 0.0 0.0 0.00 0.00 0.00 64 1016.2
20260507202316 11 0.0 0.0 0.00 0.00 0.00 63 1016.2
20260507200312 11 0.0 0.0 0.00 0.00 0.00 65 1016.0
20260507194308 11 0.0 0.0 0.00 0.00 0.00 65 1015.7
20260507192306 11 0.0 0.0 0.00 0.00 0.00 64 1015.5
20260507190259 11 0.0 0.0 0.00 0.00 0.00 63 1015.3
20260507184255 12 0.0 0.0 0.00 0.00 0.00 60 1015.2
20260507182251 13 0.0 0.0 0.00 0.00 0.00 57 1015.3
20260507180246 14 0.0 0.0 0.00 0.00 0.00 52 1015.1
20260507174242 15 0.0 0.0 0.00 0.00 0.00 49 1015.0
20260507172238 17 0.0 0.0 0.00 0.00 0.00 46 1015.0
20260507170234 17 0.0 0.0 0.00 0.00 0.00 45 1014.9
20260507164229 17 0.0 0.0 0.00 0.00 0.00 45 1014.8
20260507162225 18 0.0 0.0 0.00 0.00 0.00 43 1014.8
20260507160221 19 0.0 0.0 0.00 0.00 0.00 45 1014.6
20260507154217 17 0.0 0.0 0.00 0.00 0.00 48 1014.7
20260507152212 18 0.0 0.0 0.00 0.00 0.00 46 1014.5
20260507150208 20 0.0 0.0 0.00 0.00 0.00 45 1014.5
20260507144204 17 0.0 0.0 0.00 0.00 0.00 48 1014.6
20260507142200 17 0.0 0.0 0.00 0.00 0.00 47 1014.7
20260507140156 17 0.0 0.0 0.00 0.00 0.00 46 1015.0
20260507134153 17 0.0 0.0 0.00 0.00 0.00 48 1015.1
20260507132149 18 0.0 0.0 0.00 0.00 0.00 46 1015.3
20260507130145 17 0.0 0.0 0.00 0.00 0.00 49 1015.3
20260507124141 16 0.0 0.0 0.00 0.00 0.00 51 1015.6
20260507122138 17 0.0 0.0 0.00 0.00 0.00 48 1015.6
20260507120134 16 0.0 0.0 0.00 0.00 0.00 52 1015.8
20260507114130 16 0.0 0.0 0.00 0.00 0.00 51 1015.9
20260507112127 16 0.0 0.0 0.00 0.00 0.00 52 1016.0
20260507110122 15 0.0 0.0 0.00 0.00 0.00 51 1016.3
20260507104119 16 0.0 0.0 0.00 0.00 0.00 53 1016.4
20260507102115 16 0.0 0.0 0.00 0.00 0.00 52 1016.5
20260507100111 15 0.0 0.0 0.00 0.00 0.00 57 1016.5
20260507094108 14 0.0 0.0 0.00 0.00 0.00 58 1016.6
20260507092104 14 0.0 0.0 0.00 0.00 0.00 56 1016.5
20260507090100 13 0.0 0.0 0.00 0.00 0.00 60 1016.6
20260507084056 13 0.0 0.0 0.00 0.00 0.00 60 1016.3
20260507082052 13 0.0 0.0 0.00 0.00 0.00 62 1016.3
20260507080048 12 0.0 0.0 0.00 0.00 0.00 64 1016.1
20260507074043 11 0.0 0.0 0.00 0.00 0.00 65 1016.0
20260507072039 11 0.0 0.0 0.00 0.00 0.00 67 1016.0
20260507070035 11 0.0 0.0 0.00 0.00 0.00 66 1015.8
20260507064031 10 0.0 0.0 0.00 0.00 0.00 67 1015.5
20260507062026 11 0.0 0.0 0.00 0.00 0.00 66 1015.5
20260507060022 11 0.0 0.0 0.00 0.00 0.00 66 1015.3
20260507054018 11 0.0 0.0 0.00 0.00 0.00 66 1015.0
20260507052013 11 0.0 0.0 0.00 0.00 0.00 66 1014.6
20260507050009 11 0.0 0.0 0.00 0.00 0.00 66 1014.4
20260507044005 11 0.0 0.0 0.00 0.00 0.00 65 1014.3
20260507042000 11 0.0 0.0 0.00 0.00 0.00 65 1014.2
20260507035956 11 0.0 0.0 0.00 0.00 0.00 65 1014.1
20260507033951 11 0.0 0.0 0.00 0.00 0.00 65 1014.1
20260507031947 11 0.0 0.0 0.00 0.00 0.00 65 1013.9